Other Surface Observations
Issued by NWS Tucson, AZ

Home | Current Version | Previous Version | Text Only | Print | Product List | Glossary On
Versions: 1 2 3 4 5 6 7 8 9 10 11 12 13 14 15 16 17 18 19 20 21 22 23 24 25 26 27 28 29 30 31 32 33 34 35 36 37 38 39 40 41 42 43 44 45 46 47 48 49 50
000
SXUS55 KTWC 251815
OSOTWC

WEATHER ROUNDUP FOR SOUTHEAST ARIZONA
NATIONAL WEATHER SERVICE TUCSON AZ
1115 AM MST THU DEC 25 2014

AZZ504>506-514-251915-
LOCATION       SKY/WX    TMP DP  RH WIND       PRES   REMARKS
TUCSON         SUNNY     67  16  14 SW21G31   29.76S
DAVIS-MONTHAN  SUNNY     65  16  15 SW15G26   29.74F
CHILDRENS PARK N/A       60  12  15 SE10              PIMA CO DEQ
ALVERNON/22ND  N/A      N/A N/A N/A N/A               PIMA CO DEQ
CHERRY/GLENN   N/A      N/A N/A N/A N/A               PIMA CO DEQ
TANGERINE      N/A       60 N/A N/A S6                PIMA CO DEQ
CONTL RANCH    N/A       54  28  36 E0                PIMA CO DEQ
GRANT/1ST      N/A       60  14  16 SE3               PIMA CO DEQ
CRAYCROFT/22ND N/A      N/A N/A N/A N/A               PIMA CO DEQ
GOLFLINKS/KOLB N/A       60  16  18 N2                PIMA CO DEQ
AJO/12TH       N/A       62  12  14 S12               PIMA CO DEQ
SAGUARO EAST   N/A      N/A N/A N/A N/A               PIMA CO DEQ
FAIRGROUNDS    N/A       62 N/A N/A SW11              PIMA CO DEQ
SAGUARO        N/A       63  16  16 N5G13             *SABINO CYN
SAN CARLOS     N/A       45  23  42 S2                *SAN CARLOS
GREEN VALLEY   N/A       62   9  12 SW15              PIMA CO DEQ
HORSE CAMP CYN N/A       49  16  26 E5G13             *ARAVAIPA CYN
RINCON MTNS    N/A       42  13  30 SW5G15            *NR MANNING CAMP
$$

AZZ509>511-251915-
LOCATION       SKY/WX    TMP DP  RH WIND       PRES   REMARKS
SAFFORD        MOSUNNY   59  12  15 E8        29.74F
STRAY HORSE    N/A       35   9  33 W9G15             *
TRAIL CABIN    N/A       44  11  26 NE3               *N OF GRANVILLE
BLACK HILLS    N/A       53  18  25 W4                *N OF FT THOMAS
DRY LAKE       N/A       38   9  29 S6G11             *NATANES MTNS
NOON CREEK     N/A       55  12  18 SW11G21           *PINALENO MTNS
COLUMBINE      N/A       31   2  28 S12G23            *PINALENO MTNS
GUTHRIE        N/A       44   7  21 SW19G32           *SW OF GUTHRIE
$$

AZZ502-503-513-251915-
LOCATION       SKY/WX    TMP DP  RH WIND       PRES   REMARKS
NOGALES        MOSUNNY   63  12  13 S18G28    29.82F
SELLS          N/A       64  17  16 S12G22            *
SASABE         N/A       62  12  14 S20G32            *ALTAR VLY
HOPKINS        N/A       44   8  22 SW7G20            *SANTA RITA MTNS
CARR CYN       N/A       54  13  19 S8G22             *W OF HEREFORD
$$

AZZ507-508-512-251915-
LOCATION       SKY/WX    TMP DP  RH WIND       PRES   REMARKS
SIERRA VISTA   MOSUNNY   60  14  16 SW30G41   29.78F
DOUGLAS        MOSUNNY   61   6  11 S21G28    29.84F
EMPIRE MTNS    N/A       58  12  16 S19G30            *LAS CIENEGAS NCA
MULESHOE RANCH N/A       53  11  18 S6G17             *PRESERVE
HEADQUARTERS   N/A       56   6  13 SW7G23            *CHIRICAHUA MTNS
$$

.............................NOTES.............................
THIS IS AN AUTOMATED COLLECTIVE WITH MINIMAL QUALITY CONTROL.
PIMA CO DEQ SITES HAVE NONSTANDARD WIND SENSOR HEIGHTS.
PIMA CO DEQ SITES DO NOT REPORT WIND GUSTS.
* INDICATES WIND SENSORS LOCATED AT 20 FEET INSTEAD OF 33 FEET.
..............................KEY..............................
SKY/WX - SKY CONDITION/WEATHER
TMP    - TEMPERATURE IN FAHRENHEIT
DP     - DEWPOINT IN FAHRENHEIT
RH     - RELATIVE HUMIDITY IN PERCENT
WIND   - DIRECTION AND SPEED IN MILES PER HOUR (MPH)
VRB    - VARIABLE WIND DIRECTION
PRES   - MEAN SEA LEVEL PRESSURE IN INCHES OF MERCURY
         F - FALLING PRESSURE   R - RISING PRESSURE
         S - STEADY PRESSURE
VSB    - VISIBILITY IN MILES
HX     - HEAT INDEX IN FAHRENHEIT
WCI    - WIND CHILL INDEX IN FAHRENHEIT
N/A    - NOT AVAILABLE
AFB    - AIR FORCE BASE
         DAVIS-MONTHAN IS DAVIS-MONTHAN AIR FORCE BASE
CYN    - CANYON
MTNS   - MOUNTAINS
NCA    - NATIONAL CONSERVATION AREA
NR     - NEAR
VLY    - VALLEY
CONTL  - CONTINENTAL
PIMA CO DEQ - PIMA COUNTY DEPT OF ENVIRONMENTAL QUALITY



USA.gov is the U.S. government's official web portal to all federal, state and local government web resources and services.